UNHA 3 R/B

基本信息
目录编号:
39027
目录名称:
UNHA 3 R/B
国际标识:
2012-072B
轨道中心:
EARTH
物体状态:
已陨落(2025-11-05)
发射日期:
2012-12-12 UTC
国别:
(KP)
轨道信息
数据来源: 国际轨道数据
星历时间: 2025-11-05T22:05:40+0800
半长轴: 6525.313km
偏心率: 0.0009512
轨道倾角: 97.523°
近地点辐角: 250.113°
升交点赤经: 325.440°
平近点角: 109.915°
近地点: 140.971km
远地点: 153.385km
周期: 87.430分钟
每日圈数: 16.470273
详细信息
发射场:
YUN
轨道高度:
LEO
数据来源:
AOE Integration Group
参考系:
TEME
时间系统:
UTC
历元类型:
SGP4
2D轨道图
3D轨道图
轨道高度分析图
轨道倾角分析图
轨道综合分析图
查看轨道综合分析图